Regional Weather Roundup
Issued by NWS Goodland, KS

Home | Current Version | Previous Version | Graphics & Text | Print | Product List | Glossary On
Versions: 1 2 3 4 5 6 7 8 9 10 11 12 13 14 15 16 17 18 19 20 21 22 23 24 25 26 27 28 29 30 31 32 33 34 35 36 37 38 39 40 41 42 43 44 45 46 47 48 49 50
000
ASUS43 KGLD 182308
RWRGLD

GOODLAND FORECAST AREA HOURLY WEATHER ROUNDUP
NATIONAL WEATHER SERVICE GOODLAND KS
500 PM MDT THU SEP 18 2014

...OFFICIAL OBSERVATIONS...

CITY           SKY/WX    TMP DP  RH WIND       PRES   REMARKS
GOODLAND KS    SUNNY     85  60  42 SE12      29.91F
HILL CITY KS   SUNNY     81  66  60 E6        29.88F
IMPERIAL NEB   SUNNY     75  62  64 SE13      29.91F
MCCOOK NEB     CLOUDY    70  62  76 SE8       29.92F
AKRON CO       SUNNY     86  50  28 SE14      29.93F
BURLINGTON CO  SUNNY     90  35  14 S10G18    29.93S
LIMON CO       SUNNY     85  31  14 S16       29.99S
$$

...UNOFFICIAL OBSERVATIONS...

CITY           SKY/WX    TMP DP  RH WIND       PRES   REMARKS
COLBY KS       SUNNY     84  66  54 E10       29.91S
GOVE KS          N/A     88  32  13 MISG        N/A
NORTON KS      SUNNY     73  61  64 CALM      29.89F
SHARON SPRINGS   N/A     89  52  27 S12G20      N/A
WAKEENEY KS      N/A     88  59  37 MISG        N/A
TRENTON NEB      N/A     73  32  22 SE12        N/A
YUMA CO          N/A     84  54  35 E10         N/A
$$



USA.gov is the U.S. government's official web portal to all federal, state and local government web resources and services.